STARLINK-5190 (54092 NORAD) Tracking and Keplerian Element Data

This shows tracking and keplerian element data for the satellite.

Feedback or suggestion? Click here.




ElementValue
Catalog54092
NameSTARLINK-5190
Epoch Orbit546
Epoch Day325.16668981
Epoch Year2022
RAAN351.7145
Inclination53.216
Eccentricity0.0004065
Argument of Perigee3.938
Mean Anonmoly120.067
Mean Motion15.73158212
Decay Rate0.00032891
L11 54092U 22136AT 22325.16668981 .00032891 00000+0 23820-3 0 9993
L22 54092 53.2160 351.7145 0004065 3.9380 120.0670 15.73158212 5469



Live tracking and technical data element details for STARLINK-5190 (NORAD 54092). STARLINK-5190 can be tracked NOW for your location showing map with azimuth and elevation plus other details from your city location.







IsCatalogInMostPopularTable: catalog: 54092, numindb: 1
Update: records affected: 1



GetName: 54092 STARLINK-5190

Hit Count: updated at: Mon, 28 Nov 2022 21:30:41 GMT